DW7102 Weather Reports


time (UTC)temp
F
wind
direction
speed
knots
gust
knots
rain 1hr
in
rain 24hr
in
rain mn
in
humidity
%
barometer
mb
20260502130203 44 294 1.7 7.0 0.00 0.03 0.00 65 1012.6
20260502123203 41 302 2.6 7.8 0.00 0.04 0.00 68 1012.6
20260502113704 39 293 1.7 5.2 0.00 0.05 0.00 74 1012.3
20260502113203 39 274 0.9 7.0 0.00 0.05 0.00 76 1012.4
20260502110703 38 285 1.7 5.2 0.00 0.06 0.00 78 1012.3
20260502070200 37 260 0.9 5.2 0.00 0.10 0.00 82 1010.9
20260502063701 37 278 1.7 2.6 0.00 0.10 0.00 82 1010.8
20260502063201 37 268 0.9 2.6 0.00 0.10 0.00 82 1010.7
20260502053201 37 273 1.7 6.1 0.00 0.13 0.00 81 1010.6
20260502050200 37 250 1.7 5.2 0.00 0.13 0.00 80 1010.6
20260502043701 38 267 1.7 5.2 0.00 0.14 0.00 78 1010.8
20260502040701 39 270 1.7 6.1 0.00 0.15 0.00 78 1010.8
20260502040200 39 255 0.9 8.7 0.00 0.16 0.00 77 1010.8
20260502033201 39 308 2.6 7.8 0.00 0.18 0.16 78 1010.8
20260502030201 39 263 2.6 8.7 0.00 0.20 0.16 77 1010.8
20260502023701 40 298 0.9 7.8 0.00 0.21 0.16 77 1010.7
20260502020202 40 292 2.6 6.1 0.00 0.25 0.16 76 1010.7
20260502013701 41 269 1.7 5.2 0.00 0.28 0.16 75 1010.5
20260502010201 41 278 1.7 6.1 0.00 0.32 0.16 73 1010.3
20260502003701 41 245 0.9 2.6 0.00 0.36 0.16 73 1009.9
20260502003201 41 280 1.7 7.0 0.00 0.37 0.16 73 1009.8
20260502000702 41 265 2.6 5.2 0.00 0.43 0.16 72 1009.5
20260501233702 42 255 1.7 6.1 0.00 0.47 0.16 70 1009.2
20260501230701 43 259 2.6 7.8 0.00 0.51 0.16 70 1008.9
20260501230202 43 275 2.6 10.4 0.00 0.52 0.16 70 1008.9
20260501223201 44 250 4.3 10.4 0.00 0.54 0.16 69 1009.0
20260501220702 45 296 5.2 8.7 0.00 0.54 0.16 66 1008.8
20260501213702 46 292 4.3 11.3 0.00 0.54 0.16 64 1008.3
20260501213201 46 285 4.3 12.2 0.00 0.54 0.16 65 1008.2
20260501210702 49 259 4.3 11.3 0.00 0.54 0.16 62 1007.9
20260501210202 48 279 2.6 12.2 0.00 0.54 0.16 64 1008.0
20260501203202 48 261 4.3 13.0 0.00 0.54 0.16 63 1007.9
20260501200702 49 251 2.6 10.4 0.00 0.54 0.16 64 1007.9
20260501193202 49 235 2.6 10.4 0.00 0.54 0.16 67 1007.8
20260501190702 48 277 3.5 10.4 0.00 0.54 0.16 71 1007.9
20260501190202 47 264 1.7 10.4 0.00 0.54 0.16 71 1007.9
20260501183203 45 311 4.3 11.3 0.00 0.55 0.16 74 1007.9
20260501180202 45 304 4.3 8.7 0.00 0.57 0.16 78 1007.9
20260501170203 41 265 2.6 8.7 0.01 0.57 0.16 87 1007.9
20260501163702 40 277 4.3 10.4 0.01 0.57 0.16 88 1008.2
20260501160702 39 298 2.6 7.0 0.01 0.57 0.15 92 1008.4